This demonstration page uses our WeatherBlox Daily Observations layout. Learn more.

Left ArrowRight Arrow

Hourly Observations for December 25, 2019

Temp ( °F °C ) Dew Point ( °F °C ) Humidity (%) Winds ( mph kmh ) Pressure ( in mb ) Visibility ( mi km ) Precip ( " mm )
12:05 am 00:05 Cloudy with Mist and Fog 43 6.1 41 5 93 93 Calm 29.88 1012 3 5 0.00 0.00
12:26 am 00:26 Cloudy with Mist and Fog 43 6.1 41 5 93 93 Calm 29.87 1011 3 5 0.00 0.00
12:43 am 00:43 Cloudy with Light Rain 43 6.1 41 5 93 93 NNE 3 6 29.87 1011 3 4 0.00 0.00
12:53 am 00:53 Cloudy with Mist and Fog 43 6.1 41 5 93 93 N 6 9 29.85 1011 3 5 0.00 0.00
1:13 am 01:13 Cloudy with Mist and Fog 43 6.1 41 5 93 93 ENE 3 6 29.87 1011 3 5 0.01 0.25
1:53 am 01:53 Cloudy with Light Rain 43 6.1 41 5 93 93 Calm 29.85 1011 3 5 0.03 0.76
2:06 am 02:06 Cloudy with Rain 43 6.1 41 5 93 93 WSW 5 7 29.88 1012 3 4 0.01 0.25
2:24 am 02:24 Cloudy with Light Rain 43 6.1 41 5 93 93 Calm 29.88 1012 4 6 0.02 0.51
2:53 am 02:53 Cloudy with Light Rain 43 6.1 41 5 93 93 Calm 29.86 1011 5 8 0.03 0.76
3:07 am 03:07 Cloudy with Light Rain 43 6.1 41 5 93 93 Calm 29.88 1012 5 8 0.00 0.00
3:39 am 03:39 Cloudy with Mist and Fog 43 6.1 41 5 93 93 NNE 3 6 29.88 1012 4 6 0.00 0.00
3:53 am 03:53 Cloudy with Mist and Fog 43 6.1 41 5 93 93 NNE 3 6 29.86 1011 4 6 0.00 0.00
4:23 am 04:23 Cloudy with Mist and Fog 43 6.1 41 5 93 93 E 3 6 29.88 1012 4 6 0.00 0.00
4:44 am 04:44 Cloudy with Light Rain 43 6.1 41 5 93 93 ESE 3 6 29.88 1012 5 8 0.00 0.00
4:53 am 04:53 Cloudy with Light Rain 43 6.1 41 5 93 93 ESE 3 6 29.85 1011 4 6 0.01 0.25
5:02 am 05:02 Cloudy with Mist and Fog 43 6.1 41 5 93 93 Calm 29.87 1011 6 10 0.00 0.00
5:41 am 05:41 Cloudy 43 6.1 41 5 93 93 SSE 3 6 29.88 1012 7 11 0.00 0.00
5:53 am 05:53 Cloudy with Light Rain 43 6.1 41 5 93 93 VRB 3 6 29.86 1011 6 10 0.00 0.00
6:26 am 06:26 Cloudy with Mist and Fog 43 6.1 41 5 93 93 SSE 6 9 29.88 1012 6 10 0.00 0.00
6:53 am 06:53 Cloudy with Light Rain 43 6.1 41 5 93 93 SSE 7 11 29.86 1011 8 13 0.00 0.00
7:03 am 07:03 Cloudy with Light Rain 43 6.1 41 5 93 93 S 5 7 29.89 1012 7 11 0.01 0.25
7:18 am 07:18 Cloudy 43 6.1 41 5 93 93 SSW 5 7 29.90 1012 8 13 0.01 0.25
7:53 am 07:53 Cloudy with Light Rain 43 6.1 41 5 93 93 Calm 29.88 1012 4 6 0.03 0.76
8:13 am 08:13 Cloudy with Light Rain 43 6.1 41 5 93 93 Calm 29.91 1013 3 4 0.03 0.76
8:53 am 08:53 Cloudy with Light Rain 43 6.1 41 5 93 93 Calm 29.91 1013 3 4 0.08 2.03
9:00 am 09:00 Cloudy with Light Rain 43 6.1 41 5 93 93 Calm 29.93 1013 4 6 0.00 0.00
9:10 am 09:10 Cloudy with Light Rain 44 6.7 41 5 89 89 Calm 29.92 1013 7 11 0.01 0.25
9:19 am 09:19 Cloudy 44 6.7 41 5 89 89 Calm 29.92 1013 9 14 0.01 0.25
9:45 am 09:45 Cloudy with Light Rain 44 6.7 41 5 89 89 Calm 29.93 1014 5 8 0.02 0.51
9:53 am 09:53 Cloudy with Light Rain 44 6.7 41 5 89 89 Calm 29.92 1013 3 5 0.02 0.51
10:39 am 10:39 Cloudy with Light Rain 44 6.7 41 5 89 89 Calm 29.93 1014 9 14 0.01 0.25
10:48 am 10:48 Cloudy with Light Rain 45 7 39 4 81 81 Calm 29.93 1014 10 16 0.01 0.25
10:53 am 10:53 Cloudy 44 6.7 40 4.4 85 85 Calm 29.92 1013 10 16 0.01 0.25
11:00 am 11:00 Cloudy 44 6.7 41 5 89 89 NNE 3 6 29.92 1013 10 16 0.00 0.00
11:43 am 11:43 Cloudy with Light Rain 44 6.7 42 5.6 93 93 N 5 7 29.91 1013 2 3 0.01 0.25
11:48 am 11:48 Cloudy with Light Rain 43 6 41 5 93 93 N 7 11 29.92 1013 3 5 0.01 0.25
11:53 am 11:53 Cloudy with Light Rain 43 6.1 40 4.4 89 89 N 7 11 29.90 1012 3 5 0.02 0.51
12:01 pm 12:01 Cloudy with Light Rain 43 6.1 41 5 93 93 N 5 7 29.91 1013 3 4 0.01 0.25
12:36 pm 12:36 Cloudy with Light Rain 44 6.7 41 5 89 89 N 6 9 29.90 1013 3 4 0.05 1.27
12:53 pm 12:53 Cloudy with Light Rain 44 6.7 41 5 89 89 NNE 6 9 29.89 1012 3 4 0.05 1.27
1:00 pm 13:00 Cloudy with Light Rain 44 6.7 41 5 89 89 NNE 5 7 29.90 1013 4 6 0.01 0.25
1:09 pm 13:09 Cloudy 44 6.7 41 5 89 89 N 7 11 29.90 1013 7 11 0.01 0.25
1:26 pm 13:26 Cloudy with Light Rain 44 6.7 41 5 89 89 N 7 11 29.89 1012 7 11 0.01 0.25
1:53 pm 13:53 Cloudy 44 6.7 41 5 89 89 N 7 11 29.88 1012 10 16 0.02 0.51
2:53 pm 14:53 Cloudy with Light Rain 44 6.7 41 5 89 89 NNW 6 9 29.89 1012 4 6 0.00 0.00
3:53 pm 15:53 Cloudy 44 6.7 41 5 89 89 NNW 5 7 29.90 1012 10 16 0.00 0.00
4:53 pm 16:53 Mostly Cloudy 43 6.1 40 4.4 89 89 NW 3 6 29.90 1013 10 16 0.00 0.00
5:53 pm 17:53 Mostly Cloudy 41 5 39 3.9 93 93 Calm 29.91 1013 10 16 0.00 0.00
6:53 pm 18:53 Mostly Clear 41 5 38 3.3 89 89 NNW 6 9 29.90 1012 10 16 0.00 0.00
7:53 pm 19:53 Clear 38 3.3 36 2.2 93 93 Calm 29.90 1013 10 16 0.00 0.00
8:53 pm 20:53 Clear 40 4.4 37 2.8 89 89 NNW 7 11 29.89 1012 10 16 0.00 0.00
9:53 pm 21:53 Clear 40 4.4 36 2.2 86 86 NNW 7 11 29.90 1013 10 16 0.00 0.00
10:53 pm 22:53 Clear 40 4.4 36 2.2 86 86 NNW 7 11 29.90 1013 10 16 0.00 0.00
11:53 pm 23:53 Clear 41 5 35 1.7 79 79 NW 6 9 29.91 1013 10 16 0.00 0.00

Powered by AerisWeather